[[{"header":{"parameterUnit":"m.s-1","parameterCategory":1,"la1":30.2991,"la2":30.254,"lo1":-89.0895,"lo2":-89.0444,"dy":0.0017,"dx":0.0017,"nx":28,"ny":28,"refTime":"2023-07-31T21:00:00:Z","depth":0,"parameterNumber":2,"parameterNumberName":"U-component_of_WINDS"},"data":[0,0,0,0,0,0,0,0,0,0,0,0,0,0,0,0,0,0,0,0,0,0,0,0,0,0,0,0,0,0,0,0,0,0,0,0,0,0,0,0,0,0,0,0,0,0,0,0,0,0,0,0,0,0,0,0,0,0,1.9033,1.9033,0,1.9065,1.9065,1.9065,1.9006,1.9004,1.9002,1.9,1.9033,1.9036,1.9038,0,0,0,0,0,0,0,0,0,0,0,0,0,1.892,1.8923,1.9033,1.9033,1.9034,1.9065,1.9065,1.9066,1.9006,1.9004,1.9001,1.8999,1.9032,1.9035,1.9039,0,0,0,0,0,0,0,0,0,0,0,0,0,1.8962,1.8923,1.9033,1.9008,1.9006,1.9065,1.9065,1.9066,1.9007,1.9004,1.9001,1.8998,1.9031,1.9035,1.9039,1.9124,0,0,1.9052,1.9053,0,0,0,0,0,0,0,0,1.896,1.8967,1.9011,1.901,1.9008,1.9028,1.9037,1.9085,1.9007,1.9006,1.9,1.8996,1.9034,1.9038,1.905,1.9126,1.9127,1.9052,1.9055,1.9056,1.9057,0,0,0,0,0,0,0,1.8957,1.8965,1.9045,1.9012,1.901,1.8995,1.8997,1.9046,1.9036,1.9006,1.9002,1.9006,1.9032,1.9046,1.905,1.9128,1.9052,1.9056,1.9058,1.906,1.9273,1.9276,0,0,0,0,0,0,1.8957,1.8963,1.9044,1.9046,1.8976,1.8999,1.9002,1.9025,1.9036,1.9035,1.9009,1.9004,1.9041,1.9046,1.9051,1.915,1.9056,1.906,1.9062,1.9269,1.9273,1.9277,0,0,0,0,0,0,1.8955,1.8965,1.9043,1.9004,1.9012,1.9004,1.903,1.9027,1.9041,1.9038,1.9036,1.9025,1.9039,1.9046,1.9106,1.9151,1.9062,1.9066,1.9266,1.9271,1.9275,1.9349,0,0,0,0,0,0,1.8952,1.8965,1.8997,1.9005,1.9015,1.9098,1.9033,1.903,1.9048,1.9041,1.9052,1.9051,1.9037,1.91,1.911,1.9155,1.9069,1.9262,1.9268,1.9274,1.9343,1.9356,1.9367,0,0,0,0,0,1.8949,1.9017,1.8999,1.9009,1.9055,1.91,1.9106,1.9088,1.9052,1.9084,1.9082,1.9051,1.9144,1.9107,1.9118,1.9164,1.9259,1.9266,1.9273,1.9337,1.9354,1.9367,0,0,0,0,0,0,1.9016,1.9018,1.8998,1.9071,1.9086,1.909,1.913,1.9106,1.9131,1.9124,1.91,1.9103,1.9168,1.9172,1.913,1.9246,1.9195,1.9205,1.9241,1.9256,1.9268,1.9265,1.9072,0,0,0,0,0,1.9039,1.9076,1.9076,1.9141,1.9149,1.9139,1.9158,1.9142,1.9157,1.9163,1.9165,1.918,1.9213,1.9235,1.9265,1.9343,1.9344,1.9381,1.9393,1.9403,1.9411,1.9452,1.9467,1.93,1.93,1.93,0,0,1.9088,1.9093,1.9118,1.9154,1.9164,1.9202,1.9144,1.9187,1.9215,1.9169,1.9226,1.9228,1.9244,1.9313,1.9344,1.9319,1.9458,1.9412,1.942,1.9423,1.9461,1.9477,1.9491,1.9305,1.9304,1.9304,0,0,1.9196,1.9204,1.9258,1.9269,1.9284,1.9276,1.929,1.9297,1.9297,1.9353,1.9319,1.9352,1.9409,1.9421,1.9435,1.9546,1.9518,1.9557,1.9621,1.966,1.9673,1.9685,1.9724,1.9738,1.9565,1.9565,1.9566,0,1.9254,1.931,1.9289,1.9334,1.9351,1.931,1.9365,1.9376,1.9401,1.9413,1.9384,1.9453,1.9461,1.9532,1.9559,1.9572,1.9586,1.9555,1.9673,1.9685,1.9695,1.9731,1.9746,1.957,1.9569,1.9569,1.9569,0,1.9381,1.942,1.9462,1.9486,1.9507,1.9557,1.9543,1.9567,1.9549,1.9545,1.9602,1.961,1.964,1.9656,1.964,1.9725,1.9708,1.9677,1.9626,1.9716,1.975,1.9763,1.9576,1.9575,1.9573,1.9572,0,0,1.9532,1.9543,1.9558,1.9568,1.9581,1.9611,1.9659,1.9688,1.9708,1.9726,1.9765,1.9814,1.9784,1.98,1.9785,1.982,1.9906,1.9784,1.9784,1.9805,1.9998,2.0021,2.0038,1.9888,1.989,1.9892,1.9996,0,1.9638,1.9719,1.9701,1.9781,1.9816,1.9778,1.9819,1.9832,1.9829,1.9858,1.9855,1.9889,1.9849,1.9858,1.9891,1.9888,1.9944,1.9881,1.9923,1.9925,1.9919,2.0055,2.008,2.0178,2.001,2.0012,2.0014,0,1.9772,1.9794,1.9878,1.9884,1.9898,1.9936,1.996,1.9989,2.0002,1.9997,2.0014,1.9992,2.0038,1.9987,2.005,2.0008,2.0024,2.0025,2.0029,2.0031,1.9974,2.006,2.0208,2.0223,2.0034,2.0033,2.0031,0,1.9872,1.9923,1.9979,1.9989,1.9998,2.0025,2.003,2.004,2.0059,2.008,2.0091,2.0119,2.0133,2.0154,2.014,2.0104,2.0205,2.0153,2.0202,2.0202,2.0224,2.0223,2.0376,2.0237,2.0237,2.0236,2.0236,0,1.9992,2.0044,2.0024,2.0059,2.0115,2.0094,2.0151,2.0152,2.0161,2.0195,2.0164,2.0196,2.0175,2.0206,2.0195,2.0248,2.0255,2.0252,2.0248,2.0254,2.0255,2.0264,2.0256,2.024,2.0239,2.0238,2.0238,0,2.0113,2.0102,2.016,2.0164,2.0166,2.0208,2.0211,2.0242,2.0237,2.028,2.0288,2.028,2.0314,2.0301,2.0338,2.0331,2.0398,2.0386,2.0394,2.039,2.0439,2.0434,2.0603,2.0623,2.0472,2.0474,2.0475,0,2.019,2.0229,2.0236,2.0256,2.0263,2.0296,2.0314,2.0295,2.0315,2.0332,2.0362,2.0393,2.0417,2.0473,2.047,2.0497,2.0485,2.0542,2.0489,2.0493,2.0484,2.0482,2.0485,2.0552,2.0554,2.0556,2.0557,0,2.0326,2.0318,2.0345,2.0371,2.0393,2.0412,2.0428,2.0447,2.0428,2.0452,2.0486,2.0505,2.0541,2.0572,2.0597,2.0602,2.0576,2.0574,2.0586,2.0592,2.0594,2.0592,2.0421,2.057,2.0568,2.0567,2.0567,2.0566,2.0426,2.0459,2.0469,2.05,2.051,2.0525,2.0555,2.0553,2.0581,2.0608,2.0596,2.0635,2.0646,2.0676,2.0684,2.0715,2.0692,2.0711,2.0715,2.072,2.0726,2.059,2.0719,2.0719,2.0718,2.0718,2.0718,0,2.056,2.0564,2.0593,2.0616,2.0641,2.0614,2.063,2.0652,2.0687,2.07,2.0723,2.0762,2.0792,2.0791,2.0818,2.0842,2.0831,2.085,2.0848,2.0849,2.0745,2.073,2.0859,2.0859,2.0859,2.0859,2.0858,2.0858,2.0632,2.0685,2.0679,2.0736,2.074,2.0778,2.0789,2.0803,2.0813,2.0857,2.0881,2.088,2.0887,2.0915,2.094,2.0939,2.095,2.0974,2.0968,2.087,2.0856,2.0843,2.083,2.0976,2.0977,2.107,2.1071,2.1071]},{"header":{"parameterUnit":"m.s-1","parameterCategory":1,"la1":30.2991,"la2":30.254,"lo1":-89.0895,"lo2":-89.0444,"dy":0.0017,"dx":0.0017,"nx":28,"ny":28,"refTime":"2023-07-31T21:00:00:Z","depth":0,"parameterNumber":3,"parameterNumberName":"V-component_of_WINDS"},"data":[0,0,0,0,0,0,0,0,0,0,0,0,0,0,0,0,0,0,0,0,0,0,0,0,0,0,0,0,0,0,0,0,0,0,0,0,0,0,0,0,0,0,0,0,0,0,0,0,0,0,0,0,0,0,0,0,0,0,0.048,0.048,0,0.0477,0.0477,0.0477,0.0457,0.0456,0.0456,0.0455,0.0453,0.0453,0.0454,0,0,0,0,0,0,0,0,0,0,0,0,0,0.0466,0.0466,0.048,0.0479,0.0479,0.0477,0.0477,0.0477,0.0457,0.0456,0.0455,0.0455,0.0453,0.0453,0.0454,0,0,0,0,0,0,0,0,0,0,0,0,0,0.0468,0.0466,0.048,0.0469,0.0468,0.0477,0.0477,0.0477,0.0457,0.0456,0.0455,0.0455,0.0453,0.0453,0.0454,0.0473,0,0,0.0456,0.0456,0,0,0,0,0,0,0,0,0.0468,0.0469,0.0471,0.047,0.0469,0.0466,0.0471,0.0476,0.0457,0.0461,0.0455,0.0454,0.0458,0.0458,0.046,0.0473,0.0473,0.0456,0.0456,0.0457,0.0457,0,0,0,0,0,0,0,0.0468,0.0469,0.0479,0.0471,0.0469,0.0464,0.0464,0.0472,0.0464,0.0461,0.0459,0.0459,0.0457,0.0459,0.0459,0.0473,0.0456,0.0457,0.0457,0.0457,0.0501,0.0501,0,0,0,0,0,0,0.0469,0.0469,0.0479,0.0479,0.0467,0.0465,0.0464,0.0468,0.0464,0.0462,0.046,0.0458,0.0458,0.0459,0.0459,0.048,0.0457,0.0457,0.0458,0.05,0.0501,0.0502,0,0,0,0,0,0,0.0469,0.047,0.0479,0.0473,0.0474,0.0466,0.047,0.0468,0.047,0.0463,0.0462,0.0463,0.0458,0.0458,0.0469,0.048,0.0458,0.0458,0.0499,0.05,0.0501,0.0524,0,0,0,0,0,0,0.0469,0.047,0.0478,0.0474,0.0474,0.049,0.0471,0.0469,0.0471,0.0469,0.0466,0.0464,0.0457,0.0469,0.047,0.0481,0.0459,0.0498,0.0499,0.0501,0.0522,0.0526,0.0529,0,0,0,0,0,0.0468,0.0485,0.0479,0.048,0.0484,0.049,0.0491,0.0482,0.0472,0.0479,0.0474,0.0464,0.0479,0.047,0.0471,0.0482,0.0497,0.0499,0.0501,0.0521,0.0525,0.0528,0,0,0,0,0,0,0.0491,0.0484,0.0477,0.0493,0.0492,0.0487,0.0496,0.0487,0.0489,0.0487,0.0476,0.0476,0.0488,0.0486,0.0477,0.05,0.0486,0.0488,0.0501,0.0505,0.0508,0.0508,0.0459,0,0,0,0,0,0.0498,0.0504,0.0498,0.0512,0.0512,0.0504,0.0506,0.05,0.0499,0.0498,0.0495,0.0494,0.0498,0.0501,0.0505,0.0521,0.052,0.0529,0.0533,0.0535,0.0537,0.0545,0.0548,0.0507,0.0507,0.0507,0,0,0.0513,0.0509,0.0514,0.0516,0.0515,0.0521,0.0504,0.0512,0.0516,0.05,0.051,0.0507,0.0505,0.0519,0.0525,0.0518,0.0548,0.0538,0.054,0.054,0.0547,0.0551,0.0554,0.0508,0.0508,0.0508,0,0,0.0542,0.054,0.0551,0.055,0.0548,0.0542,0.0545,0.0541,0.0538,0.0548,0.0535,0.054,0.0548,0.0547,0.0547,0.0574,0.0565,0.0576,0.0593,0.06,0.0603,0.0606,0.0615,0.0618,0.0578,0.0578,0.0578,0,0.056,0.0568,0.0558,0.0566,0.0567,0.0552,0.0563,0.0562,0.0562,0.0563,0.0555,0.0563,0.0561,0.0574,0.058,0.0581,0.0583,0.0576,0.0604,0.0606,0.0609,0.0617,0.062,0.0579,0.0579,0.0579,0.0579,0,0.059,0.0596,0.0606,0.0605,0.0607,0.0616,0.0607,0.061,0.0603,0.0598,0.0607,0.0604,0.0606,0.0608,0.0602,0.062,0.0615,0.0606,0.0591,0.0614,0.0622,0.0625,0.0581,0.058,0.058,0.058,0,0,0.0635,0.0627,0.063,0.0629,0.0625,0.063,0.0638,0.0639,0.0642,0.0642,0.0648,0.0654,0.0644,0.0645,0.0638,0.0644,0.0664,0.0634,0.0633,0.0639,0.0683,0.0689,0.0693,0.0658,0.0658,0.0659,0.0682,0,0.0662,0.0675,0.0666,0.0681,0.0686,0.0671,0.0678,0.0676,0.0671,0.0674,0.0669,0.0673,0.0661,0.0661,0.0666,0.0661,0.0673,0.0659,0.0663,0.0663,0.0663,0.0697,0.0705,0.0728,0.0685,0.0686,0.0686,0,0.0696,0.0696,0.0711,0.0705,0.0707,0.0713,0.0713,0.0717,0.0714,0.071,0.0709,0.07,0.0707,0.0693,0.0702,0.0692,0.0693,0.0691,0.0691,0.0691,0.0676,0.0698,0.0735,0.0738,0.0691,0.0691,0.069,0,0.0725,0.073,0.0739,0.0739,0.0732,0.0737,0.0734,0.073,0.0731,0.0731,0.0731,0.0732,0.0733,0.0733,0.0724,0.0715,0.0733,0.0719,0.073,0.073,0.0734,0.0734,0.0772,0.0736,0.0736,0.0736,0.0736,0,0.0757,0.0766,0.0752,0.0758,0.0768,0.0757,0.0767,0.0763,0.0759,0.0763,0.0751,0.0755,0.0743,0.0745,0.0738,0.0746,0.0746,0.0743,0.0741,0.0744,0.0744,0.0744,0.0742,0.0736,0.0736,0.0736,0.0736,0,0.0792,0.0783,0.0792,0.0784,0.0782,0.079,0.0783,0.0788,0.0782,0.0787,0.0788,0.0778,0.078,0.0771,0.0772,0.0767,0.0778,0.0774,0.0779,0.0778,0.0789,0.0787,0.0827,0.0831,0.0793,0.0794,0.0794,0,0.0812,0.0819,0.0812,0.0813,0.0811,0.0814,0.0815,0.0804,0.0805,0.0801,0.0806,0.0807,0.0808,0.0812,0.0805,0.0805,0.08,0.0814,0.08,0.0803,0.0799,0.0799,0.0799,0.0817,0.0817,0.0818,0.0818,0,0.0849,0.0844,0.0845,0.0845,0.0846,0.0845,0.0843,0.0845,0.0833,0.0835,0.0837,0.0837,0.0837,0.0838,0.0837,0.0834,0.0824,0.0822,0.0825,0.0828,0.083,0.0828,0.0787,0.0821,0.0821,0.0821,0.0821,0.0821,0.0876,0.0881,0.0877,0.0878,0.0876,0.0874,0.0878,0.0872,0.0873,0.0872,0.0865,0.0868,0.0864,0.0861,0.0858,0.086,0.0854,0.0857,0.0858,0.0859,0.0861,0.083,0.086,0.086,0.086,0.086,0.086,0,0.0912,0.0908,0.0909,0.0907,0.0908,0.0898,0.0895,0.0897,0.09,0.0896,0.0896,0.0898,0.0899,0.0891,0.0891,0.0893,0.0889,0.0894,0.0893,0.0892,0.0867,0.0865,0.0897,0.0897,0.0897,0.0897,0.0897,0.0897,0.093,0.0938,0.0932,0.0938,0.0933,0.0936,0.0935,0.0933,0.093,0.0933,0.0933,0.0928,0.0923,0.0921,0.0921,0.0919,0.0919,0.0925,0.0921,0.0898,0.0894,0.0891,0.0888,0.0926,0.0926,0.0946,0.0946,0.0947]}]]